TimeCST,TemperatureF,Dew PointF,Humidity,Sea Level PressureIn,VisibilityMPH,Wind Direction,Wind SpeedMPH,Gust SpeedMPH,PrecipitationIn,Events,Conditions,WindDirDegrees,DateUTC
12:53 AM,36.0,30.9,82,29.90,10.0,WSW,5.8,-,N/A,,Clear,240,2013-11-15 06:53:00
1:53 AM,36.0,30.0,79,29.88,10.0,SW,3.5,-,N/A,,Clear,230,2013-11-15 07:53:00
2:53 AM,36.0,30.9,82,29.87,10.0,SW,4.6,-,N/A,,Clear,230,2013-11-15 08:53:00
3:53 AM,35.1,30.0,82,29.86,10.0,SW,4.6,-,N/A,,Clear,230,2013-11-15 09:53:00
4:53 AM,36.0,30.9,82,29.86,10.0,SW,4.6,-,N/A,,Clear,230,2013-11-15 10:53:00
5:53 AM,35.1,30.9,85,29.85,10.0,SSW,3.5,-,N/A,,Clear,210,2013-11-15 11:53:00
6:53 AM,28.9,26.1,89,29.86,10.0,WSW,3.5,-,N/A,,Clear,240,2013-11-15 12:53:00
7:53 AM,32.0,28.9,88,29.85,10.0,Calm,Calm,-,N/A,,Clear,0,2013-11-15 13:53:00
8:53 AM,36.0,30.9,82,29.83,10.0,South,3.5,-,N/A,,Clear,170,2013-11-15 14:53:00
9:53 AM,45.0,35.1,68,29.82,10.0,South,5.8,-,N/A,,Clear,170,2013-11-15 15:53:00
10:53 AM,46.0,36.0,68,29.81,10.0,SSE,9.2,18.4,N/A,,Clear,150,2013-11-15 16:53:00
11:53 AM,51.1,33.1,50,29.80,10.0,SSE,12.7,-,N/A,,Clear,160,2013-11-15 17:53:00
12:53 PM,54.0,33.1,45,29.73,10.0,South,13.8,20.7,N/A,,Clear,170,2013-11-15 18:53:00
1:53 PM,55.0,32.0,42,29.68,10.0,SSE,13.8,23.0,N/A,,Clear,160,2013-11-15 19:53:00
2:53 PM,55.0,32.0,42,29.65,10.0,South,15.0,-,N/A,,Clear,170,2013-11-15 20:53:00
3:53 PM,54.0,34.0,47,29.62,10.0,SSE,11.5,-,N/A,,Clear,150,2013-11-15 21:53:00
4:53 PM,52.0,35.1,53,29.63,10.0,SSE,12.7,23.0,N/A,,Clear,160,2013-11-15 22:53:00
5:53 PM,48.9,35.1,59,29.64,10.0,SSE,10.4,-,N/A,,Clear,160,2013-11-15 23:53:00
6:53 PM,46.9,35.1,63,29.63,10.0,SSE,11.5,-,N/A,,Clear,160,2013-11-16 00:53:00
7:53 PM,46.9,36.0,66,29.62,10.0,SSE,9.2,-,N/A,,Clear,150,2013-11-16 01:53:00
8:53 PM,45.0,36.0,71,29.60,10.0,South,9.2,18.4,N/A,,Clear,170,2013-11-16 02:53:00
9:53 PM,46.0,36.0,68,29.57,10.0,South,9.2,-,N/A,,Clear,170,2013-11-16 03:53:00
10:53 PM,44.1,36.0,73,29.55,10.0,SSE,10.4,-,N/A,,Clear,160,2013-11-16 04:53:00
11:53 PM,43.0,36.0,76,29.52,10.0,SSE,10.4,-,N/A,,Clear,160,2013-11-16 05:53:00